Weather History for KSPG - August, 2014

Change the Weather History Date:

Thursday, August 7, 2014

  Actual Average Record
Temperature  
Mean Temperature 85 °F -  
Max Temperature 90 °F 90 °F 96 °F (1961)
Min Temperature 80 °F 77 °F 66 °F (1950)
Cooling Degree Days 20    
Growing Degree Days 35 (Base 50)    
Moisture  
Dew Point 74 °F    
Average Humidity 70    
Maximum Humidity 82    
Minimum Humidity 57    
Precipitation  
Precipitation 0.32 in - - ()
Sea Level Pressure  
Sea Level Pressure 29.99 in    
Wind  
Wind Speed 5 mph (ENE)    
Max Wind Speed 12 mph    
Max Gust Speed 26 mph    
Visibility 9 miles    
Events Rain , Thunderstorm    
Averages and records for this station are not official NWS values.
T = Trace of Precipitation, MM = Missing Value Source: NWS Daily Summary

Daily Weather History Graph

Daily Weather History Graph

Search for Another Location

Airport or City:

Trip Planner

Search our weather history database for the weather conditions in past years. The results will help you decide how hot, cold, wet, or windy it might be!

Date:

Astronomy

Aug. 07, 2014 Rise Set
Actual Time 6:56 AM EDT 8:15 PM EDT
Civil Twilight 6:31 AM EDT 8:40 PM EDT
Nautical Twilight 6:02 AM EDT 9:09 PM EDT
Astronomical Twilight 5:31 AM EDT 9:40 PM EDT
Moon 5:26 PM EDT (8/7) 3:29 AM EDT (8/7)
Length of Visible Light 14h 08m
Length of Day
13h 18m
Waxing Gibbous, 86% of the Moon is Illuminated
Aug 7
Waxing Gibbous
Aug 10
Full
Aug 17
Last Quarter
Aug 25
New
Sep 2
First Quarter

Hourly Weather History & Observations

Time (EDT) Temp. Heat Index Dew Point Humidity Pressure Visibility Wind Dir Wind Speed Gust Speed Precip Events Conditions
12:53 AM 84.9 °F 92.1 °F 73.9 °F 69% 30.01 in 10.0 mi North 4.6 mph - N/A   Scattered Clouds
1:53 AM 84.0 °F 91.9 °F 75.0 °F 74% 29.99 in 10.0 mi North 3.5 mph - N/A   Partly Cloudy
2:53 AM 82.9 °F 90.8 °F 75.9 °F 79% 29.99 in 10.0 mi East 4.6 mph - N/A   Clear
3:53 AM 82.9 °F 90.8 °F 75.9 °F 79% 29.98 in 10.0 mi ENE 3.5 mph - N/A   Clear
4:53 AM 82.9 °F 90.8 °F 75.9 °F 79% 29.97 in 10.0 mi East 3.5 mph - N/A   Clear
5:53 AM 82.9 °F 90.8 °F 75.9 °F 79% 29.98 in 10.0 mi Calm Calm - N/A   Clear
6:53 AM 82.9 °F 90.8 °F 75.9 °F 79% 29.99 in 10.0 mi Calm Calm - N/A   Clear
7:53 AM 82.9 °F 91.8 °F 77.0 °F 82% 30.00 in 10.0 mi SSW 3.5 mph - N/A   Clear
8:53 AM 84.9 °F 94.1 °F 75.9 °F 74% 30.01 in 10.0 mi Calm Calm - N/A   Clear
9:53 AM 84.0 °F 91.9 °F 75.0 °F 74% 30.01 in 10.0 mi WSW 3.5 mph - N/A   Clear
10:53 AM 87.1 °F 97.3 °F 75.9 °F 69% 30.02 in 10.0 mi SE 4.6 mph - N/A   Mostly Cloudy
11:53 AM 87.1 °F 96.3 °F 75.0 °F 67% 30.02 in 10.0 mi SSE 5.8 mph - N/A   Mostly Cloudy
12:45 PM 82.0 °F 87.4 °F 73.0 °F 74% 30.02 in 0.8 mi North 9.2 mph 26.5 mph 0.19 in Rain Heavy Rain
12:53 PM 80.1 °F 83.6 °F 71.1 °F 74% 30.01 in 0.8 mi East 8.1 mph - 0.32 in Rain Heavy Rain
12:56 PM 81.0 °F 84.9 °F 71.1 °F 72% 30.01 in 1.5 mi SE 9.2 mph - 0.00 in Rain Rain
12:59 PM 84.0 °F 89.0 °F 71.1 °F 65% 30.01 in 3.0 mi ESE 6.9 mph - 0.00 in Rain Light Rain
1:53 PM 90.0 °F 100.2 °F 75.0 °F 61% 29.99 in 10.0 mi Calm Calm - 0.00 in   Scattered Clouds
2:05 PM 88.0 °F 95.6 °F 73.0 °F 61% 29.99 in 10.0 mi Variable 4.6 mph - N/A Thunderstorm Thunderstorm
2:34 PM 84.0 °F 91.2 °F 73.9 °F 72% 29.99 in 10.0 mi NNE 9.2 mph - N/A   Overcast
2:53 PM 87.1 °F 97.3 °F 75.9 °F 69% 29.98 in 10.0 mi NE 9.2 mph - N/A   Scattered Clouds
3:53 PM 90.0 °F 97.9 °F 73.0 °F 57% 29.96 in 10.0 mi NNW 5.8 mph - N/A   Overcast
4:53 PM 90.0 °F 97.9 °F 73.0 °F 57% 29.94 in 10.0 mi WNW 10.4 mph - N/A   Scattered Clouds
5:53 PM 89.1 °F 97.0 °F 73.0 °F 59% 29.94 in 10.0 mi NW 11.5 mph - N/A   Partly Cloudy
6:53 PM 89.1 °F 97.0 °F 73.0 °F 59% 29.96 in 10.0 mi NW 6.9 mph - N/A   Partly Cloudy
7:53 PM 88.0 °F 95.6 °F 73.0 °F 61% 29.96 in 10.0 mi North 9.2 mph - N/A   Partly Cloudy
8:53 PM 84.9 °F 93.3 °F 75.0 °F 72% 29.96 in 10.0 mi East 10.4 mph - N/A   Clear
9:53 PM 82.9 °F 88.8 °F 73.0 °F 72% 29.96 in 10.0 mi SE 8.1 mph - N/A   Clear
10:53 PM 82.9 °F 90.2 °F 75.0 °F 77% 29.98 in 10.0 mi South 8.1 mph - N/A   Clear
11:53 PM 82.9 °F 90.2 °F 75.0 °F 77% 30.00 in 10.0 mi SE 4.6 mph - N/A   Clear